Weather History for Jonesboro, AR

Change the Weather History Date:

Friday, May 3, 2013

  Actual Average Record
Temperature  
Mean Temperature 45 °F 65 °F  
Max Temperature 53 °F 76 °F 94 °F (1901)
Min Temperature 36 °F 55 °F 36 °F (2013)
Degree Days  
Heating Degree Days 20 2  
Month to date heating degree days 22 8  
Since 1 July heating degree days 3507 3623  
Cooling Degree Days 0 3  
Month to date cooling degree days 4 7  
Year to date cooling degree days 53 54  
Moisture  
Dew Point 41 °F    
Average Humidity 86    
Maximum Humidity 96    
Minimum Humidity 76    
Precipitation  
Precipitation 2.11 in 0.20 in 2.41 in (1958)
Month to date precipitation 3.40 0.57  
Year to date precipitation 19.93 17.24  
Snow  
Snow 0.00 in 0.00 in - ()
Month to date snowfall 0.0 0.0  
Since 1 July snowfall 11.0 4.8  
Snow Depth 0.00 in    
Sea Level Pressure  
Sea Level Pressure 29.95 in    
Wind  
Wind Speed 10 mph (WNW)    
Max Wind Speed 18 mph    
Max Gust Speed 31 mph    
Visibility 6 miles    
Events Rain    
T = Trace of Precipitation, MM = Missing Value Source: NWS Daily Summary

Daily Weather History Graph

Daily Weather History Graph

Search for Another Location

Airport:

Trip Planner

Search our weather history database for the weather conditions in past years. The results will help you decide how hot, cold, wet, or windy it might be!

Date:

Astronomy

May. 03, 2013 Rise Set
Actual Time 6:07 AM CDT 7:51 PM CDT
Civil Twilight 5:40 AM CDT 8:19 PM CDT
Nautical Twilight 5:07 AM CDT 8:52 PM CDT
Astronomical Twilight 4:31 AM CDT 9:27 PM CDT
Moon 2:20 AM CDT (5/3) 1:57 PM CDT (5/3)
Length of Visible Light 14h 38m
Length of Day
13h 43m
Last Quarter, 37% of the Moon is Illuminated
May 3
Last Quarter
May 9
New
May 17
First Quarter
May 24
Full
May 31
Last Quarter

Hourly Weather History & Observations

Time (CDT) Temp. Windchill Dew Point Humidity Pressure Visibility Wind Dir Wind Speed Gust Speed Precip Events Conditions
12:43 AM 53.6 °F - 51.8 °F 94% 30.02 in 10.0 mi NW 12.7 mph 18.4 mph 0.10 in Rain Light Rain
12:53 AM 53.1 °F - 51.1 °F 93% 30.01 in 8.0 mi NW 15.0 mph - 0.11 in Rain Light Rain
1:16 AM 51.8 °F - 50.0 °F 94% 30.01 in 6.0 mi NW 13.8 mph - 0.03 in Rain Light Rain
1:53 AM 51.1 °F - 48.9 °F 92% 29.98 in 6.0 mi NW 13.8 mph 20.7 mph 0.11 in Rain Rain
2:37 AM 50.0 °F - 46.4 °F 87% 29.97 in 10.0 mi NW 11.5 mph 23.0 mph 0.08 in Rain Light Rain
2:53 AM 50.0 °F - 46.9 °F 89% 29.96 in 6.0 mi NNW 9.2 mph 18.4 mph 0.09 in Rain Light Rain
3:06 AM 50.0 °F - 46.4 °F 87% 29.97 in 10.0 mi NNW 12.7 mph 21.9 mph 0.01 in Rain Light Rain
3:35 AM 48.2 °F - 46.4 °F 93% 29.97 in 6.0 mi NW 11.5 mph 16.1 mph 0.03 in Rain Light Rain
3:53 AM 46.9 °F - 45.0 °F 93% 29.97 in 7.0 mi NW 13.8 mph 20.7 mph 0.04 in Rain Light Rain
4:04 AM 46.4 °F 40.7 °F 44.6 °F 93% 29.97 in 3.0 mi NW 12.7 mph 24.2 mph 0.04 in Rain Rain
4:53 AM 46.0 °F 39.9 °F 43.0 °F 89% 29.95 in 5.0 mi NW 13.8 mph - 0.11 in Rain Rain
5:15 AM 46.4 °F 41.1 °F 42.8 °F 87% 29.95 in 4.0 mi NW 11.5 mph 18.4 mph 0.06 in Rain Rain
5:53 AM 45.0 °F 39.7 °F 42.1 °F 90% 29.96 in 10.0 mi NW 10.4 mph 18.4 mph 0.11 in Rain Light Rain
6:51 AM 42.8 °F 35.8 °F 41.0 °F 93% 29.96 in 4.0 mi NNW 13.8 mph 19.6 mph 0.09 in Rain Rain
6:53 AM 43.0 °F 36.4 °F 41.0 °F 93% 29.95 in 4.0 mi NNW 12.7 mph 19.6 mph 0.10 in Rain Rain
7:53 AM 42.1 °F 35.7 °F 39.9 °F 92% 29.96 in 2.5 mi NW 11.5 mph - 0.22 in Rain Heavy Rain
7:59 AM 42.8 °F 36.2 °F 39.2 °F 87% 29.96 in 3.0 mi NW 12.7 mph 19.6 mph 0.01 in Rain Rain
8:33 AM 42.8 °F 36.6 °F 39.2 °F 87% 29.97 in 2.0 mi WNW 11.5 mph 21.9 mph 0.11 in Rain Rain
8:35 AM 42.8 °F 37.0 °F 39.2 °F 87% 29.97 in 1.8 mi NW 10.4 mph 21.9 mph 0.12 in Rain Rain
8:53 AM 41.0 °F 34.7 °F 39.0 °F 93% 29.96 in 1.5 mi NW 10.4 mph 19.6 mph 0.24 in Rain Heavy Rain
9:09 AM 41.0 °F 35.8 °F 39.2 °F 93% 29.95 in 2.0 mi NW 8.1 mph 18.4 mph 0.08 in Rain Rain
9:17 AM 41.0 °F 35.2 °F 39.2 °F 93% 29.95 in 1.8 mi NW 9.2 mph - 0.13 in Rain Heavy Rain
9:37 AM 41.0 °F 34.7 °F 39.2 °F 93% 29.95 in 1.8 mi NNW 10.4 mph - 0.28 in Rain Heavy Rain
9:53 AM 41.0 °F 35.8 °F 39.9 °F 96% 29.94 in 1.8 mi NNW 8.1 mph - 0.40 in Rain Heavy Rain
10:04 AM 41.0 °F 37.1 °F 39.2 °F 93% 29.95 in 2.0 mi NW 5.8 mph - 0.07 in Rain Rain
10:17 AM 42.8 °F 37.5 °F - N/A% 29.94 in 3.0 mi NNW 9.2 mph - 0.11 in Rain Rain
10:32 AM 42.8 °F 38.0 °F - N/A% 29.95 in 5.0 mi WNW 8.1 mph - 0.13 in Rain Light Rain
10:46 AM 42.8 °F 40.1 °F - N/A% 29.95 in 3.0 mi WNW 4.6 mph - 0.16 in Rain Light Rain
10:53 AM 42.1 °F 37.7 °F - N/A% 29.96 in 2.5 mi WNW 6.9 mph - 0.18 in Rain Rain
11:06 AM 42.8 °F 37.0 °F - N/A% 29.96 in 2.5 mi WNW 10.4 mph - 0.05 in Rain Rain
11:14 AM 42.8 °F 38.0 °F - N/A% 29.96 in 3.0 mi WNW 8.1 mph - 0.08 in Rain Rain
11:24 AM 42.8 °F 38.0 °F - N/A% 29.96 in 3.0 mi WNW 8.1 mph - 0.11 in Rain Rain
11:31 AM 42.8 °F 37.0 °F - N/A% 29.95 in 3.0 mi WNW 10.4 mph - 0.13 in Rain Rain
11:43 AM 42.8 °F 36.6 °F - N/A% 29.94 in 3.0 mi WNW 11.5 mph - 0.16 in Rain Rain
11:53 AM 42.1 °F 36.6 °F - N/A% 29.95 in 4.0 mi NW 9.2 mph - 0.18 in Rain Rain
12:03 PM 42.8 °F 38.6 °F - N/A% 29.94 in 5.0 mi WNW 6.9 mph - 0.02 in Rain Rain
12:34 PM 42.8 °F 38.6 °F - N/A% 29.94 in 4.0 mi NW 6.9 mph - 0.07 in Rain Rain
12:46 PM 42.8 °F 37.0 °F - N/A% 29.94 in 6.0 mi West 10.4 mph - 0.08 in Rain Light Rain
12:53 PM 43.0 °F 37.7 °F - N/A% 29.92 in 4.0 mi NW 9.2 mph - 0.10 in Rain Light Rain
1:00 PM 42.8 °F 37.0 °F - N/A% 29.93 in 3.0 mi WNW 10.4 mph - 0.01 in Rain Rain
1:16 PM 42.8 °F 36.2 °F - N/A% 29.95 in 5.0 mi West 12.7 mph - 0.04 in Rain Light Rain
1:32 PM 42.8 °F 36.2 °F - N/A% 29.93 in 6.0 mi WNW 12.7 mph 19.6 mph 0.05 in Rain Light Rain
1:39 PM 42.8 °F 35.8 °F - N/A% 29.93 in 4.0 mi WNW 13.8 mph 20.7 mph 0.07 in Rain Rain
1:53 PM 43.0 °F 37.7 °F - N/A% 29.94 in 5.0 mi West 9.2 mph - 0.09 in Rain Light Rain
2:32 PM 44.6 °F 39.2 °F 39.2 °F 81% 29.92 in 7.0 mi WNW 10.4 mph - 0.07 in Rain Light Rain
2:53 PM 43.0 °F 36.4 °F 39.9 °F 89% 29.93 in 4.0 mi WNW 12.7 mph - 0.11 in Rain Light Rain
3:01 PM 42.8 °F 37.0 °F 39.2 °F 87% 29.92 in 3.0 mi West 10.4 mph 17.3 mph 0.02 in Rain Rain
3:11 PM 42.8 °F 35.8 °F 39.2 °F 87% 29.91 in 8.0 mi West 13.8 mph - 0.03 in Rain Light Rain
3:20 PM 42.8 °F 35.4 °F 39.2 °F 87% 29.91 in 10.0 mi West 15.0 mph 20.7 mph 0.03 in Rain Light Rain
3:29 PM 42.8 °F 35.1 °F 39.2 °F 87% 29.92 in 10.0 mi WNW 16.1 mph 23.0 mph 0.03 in Rain Light Rain
3:49 PM 42.8 °F 36.2 °F 39.2 °F 87% 29.93 in 10.0 mi WNW 12.7 mph 19.6 mph 0.03 in   Overcast
3:53 PM 43.0 °F 37.7 °F 39.0 °F 86% 29.93 in 10.0 mi West 9.2 mph 19.6 mph 0.03 in   Overcast
4:01 PM 42.8 °F 37.0 °F 39.2 °F 87% 29.93 in 10.0 mi West 10.4 mph 17.3 mph N/A   Overcast
4:53 PM 43.0 °F 38.2 °F 39.0 °F 86% 29.94 in 9.0 mi West 8.1 mph 17.3 mph N/A   Overcast
5:11 PM 42.8 °F 37.0 °F 39.2 °F 87% 29.94 in 10.0 mi West 10.4 mph - N/A   Overcast
5:26 PM 44.6 °F 39.2 °F 39.2 °F 81% 29.94 in 10.0 mi West 10.4 mph - N/A   Overcast
5:41 PM 42.8 °F 37.0 °F 39.2 °F 87% 29.94 in 5.0 mi West 10.4 mph 18.4 mph 0.00 in Rain Light Rain
5:53 PM 43.0 °F 36.4 °F 39.0 °F 86% 29.93 in 10.0 mi West 12.7 mph - 0.00 in   Overcast
6:05 PM 42.8 °F 36.6 °F 39.2 °F 87% 29.93 in 7.0 mi West 11.5 mph - N/A   Overcast
6:19 PM 42.8 °F 37.0 °F 39.2 °F 87% 29.94 in 5.0 mi West 10.4 mph 18.4 mph 0.00 in Rain Light Rain
6:53 PM 43.0 °F 35.7 °F 39.0 °F 86% 29.95 in 7.0 mi West 15.0 mph 21.9 mph 0.00 in Rain Light Rain
7:20 PM 42.8 °F 37.0 °F 37.4 °F 81% 29.95 in 10.0 mi West 10.4 mph - 0.00 in   Overcast
7:27 PM 42.8 °F 36.2 °F 37.4 °F 81% 29.95 in 10.0 mi West 12.7 mph 19.6 mph 0.00 in   Overcast
7:34 PM 42.8 °F 37.0 °F 37.4 °F 81% 29.96 in 10.0 mi West 10.4 mph 19.6 mph 0.00 in   Overcast
7:53 PM 42.1 °F 35.7 °F 37.0 °F 82% 29.96 in 10.0 mi West 11.5 mph - 0.00 in   Overcast
8:45 PM 42.8 °F 37.5 °F 37.4 °F 81% 29.97 in 10.0 mi West 9.2 mph - N/A   Overcast
8:53 PM 42.1 °F 37.1 °F 36.0 °F 79% 29.98 in 10.0 mi West 8.1 mph - N/A   Overcast
9:53 PM 39.9 °F 35.1 °F 35.1 °F 83% 29.99 in 10.0 mi West 6.9 mph - N/A   Clear
10:53 PM 37.9 °F 33.5 °F 35.1 °F 89% 29.98 in 10.0 mi WSW 5.8 mph - N/A   Clear
11:53 PM 37.9 °F 35.5 °F 35.1 °F 89% 29.96 in 10.0 mi WSW 3.5 mph - N/A   Clear